COSMOS 249 DEB, 3695

Orbit data source: Space-Track

COSMOS 249 DEB, 3695 is space debris in LEO originally from a launch on Sun, 20 Oct 1968 UTC launched from the Tyuratam Missile And Space Complex (TTMTR). Debris objects in space refer to the collection of defunct objects orbiting the Earth. Examples of debris include non-operational satellites, rocket bodies, and fragments generated from explosions, collisions, or faulty payload assembly.

Loading next visibility...
Identifier
3695, 1968-091AL
Orbit
LEO
Country
Flag of CISCIS
Related business
Manufacturer
Unknown
Mission
Spacecraft
Bus & Motor
Unknown
Mass
Unknown
Launch date (UTC)
1968-10-20 (58 years ago)
Launch vehicle
Unknown
Launch site
Tyuratam Missile And Space Complex (TTMTR)
Object type
Payload
Rocket body
Debris
Shape & HBR
Unknown shape, 0.1 m
Radar Cross Section
Medium (>0.1 m² and <1 m²)

Expand to show TLE details & history
Last TLE update: 2 days ago

TLE from 2 days ago
0 COSMOS 249 DEB
1 03695U 68091AL  26194.93716066  .00000630  00000-0  77841-3 0  9996
2 03695  62.2404 182.8090 0641695 242.5538 110.8814 13.07490438675696
Epoch: 2026-07-13T22:29Z
TLE epoch observation values (Epoch: 2026-07-13T22:29:30.681Z)
Latitude
Longitude
-86.38335°
Altitude
1,434.993 km
Speed
7.05 km/s
True Right ascension
12h 11m 14s
True Declination
0° 00' 00"
Sunlit
Object was in daylight at epoch
Visualization orbit readout
Latitude
Unknown
Longitude
Unknown
Altitude
Unknown
Speed
Unknown
Apparent Right ascension
Unknown
Apparent Declination
Unknown
Sunlit
N/A
Visualization observer readout
Local Sidereal Time
05:41:22
Azimuth
Unknown
Elevation
Unknown
Doppler factor
Unknown
Orbital elements
Apogee altitude
1,720.201 km
Perigee altitude
743.54 km
Semi-major axis
7,610.008 km
Eccentricity
0.06417
Inclination
62.2404°
RAAN
182.809°
Arg. of periapsis
242.5538°
True anomaly
117.54555°
Mean anomaly
110.8814°
Eccentric anomaly
114.23404°
Mean motion
3.26938 °/min
Orbital period
110.11 mins
BSTAR
0.00077841
Loading maneuver chart data...
Computing Atmospheric mass density...

Documentation

Showing up to 5 results
|